Location: Joffre
(52.3362°N, 113.5373°W)
Time: 12:06:21
(UTC+00:00)

N. Korean satellite - Pass Details

Date: 09 December 2021
Orbit: 447 x 490 km, 97.3° (Epoch: 27 January)

Event Time Altitude Azimuth Distance (km) Brightness Sun altitude
Rises 13:22:06 0° 9° (N) 2,468 10.1 -18.6°
Reaches altitude 10° 13:24:10 10° 5° (N) 1,588 9.1 -18.3°
Maximum altitude 13:27:28 52° 288° (WNW) 569 6.5 -17.8°
Drops below altitude 10° 13:30:46 10° 211° (SSW) 1,577 9.0 -17.3°
Sets 13:32:48 0° 207° (SSW) 2,447 10.0 -17.0°
